EW7469 Weather Reports


Display with metric or nautical units.
time (UTC)temp
F
wind
direction
speed
MPH
gust
MPH
rain 1hr
in
rain 24hr
in
rain mn
in
humidity
%
barometer
mb
20260906223531 86 302 0.0 3.0 0.00 0.08 0.00 69 1010.1
20260906223027 86 302 1.0 3.0 0.00 0.08 0.00 68 1010.0
20260906222535 86 304 0.0 5.0 0.00 0.08 0.00 68 1010.0
20260906222032 86 285 1.0 5.0 0.00 0.08 0.00 68 1010.0
20260906221528 86 300 2.0 5.0 0.00 0.08 0.00 71 1009.6
20260906221037 87 314 3.0 5.0 0.00 0.08 0.00 73 1009.6
20260906220533 87 118 3.0 5.0 0.00 0.08 0.00 73 1009.6
20260906220049 87 149 1.0 5.0 0.00 0.08 0.00 73 1009.6
20260906215542 87 138 1.0 5.0 0.00 0.08 0.00 72 1009.6
20260906215033 88 72 1.0 2.0 0.00 0.08 0.00 71 1009.6
20260906214528 88 105 1.0 3.0 0.00 0.08 0.00 71 1009.3
20260906214025 89 141 0.0 3.0 0.00 0.08 0.00 70 1009.3
20260906213536 89 135 0.0 3.0 0.00 0.08 0.00 69 1009.3
20260906213027 90 113 1.0 2.0 0.00 0.08 0.00 66 1009.4
20260906212601 90 139 0.0 5.0 0.00 0.16 0.00 66 1009.4
20260906212035 91 124 2.0 5.0 0.00 0.16 0.00 65 1009.4
20260906211531 91 147 1.0 6.0 0.00 0.16 0.00 65 1009.4
20260906211026 91 160 1.0 6.0 0.00 0.16 0.00 65 1009.4
20260906210531 91 87 1.0 3.0 0.00 0.16 0.00 66 1009.4
20260906210039 91 106 1.0 5.0 0.00 0.16 0.00 65 1009.8
20260906205535 91 158 2.0 5.0 0.00 0.16 0.00 64 1009.8
20260906205031 92 172 1.0 9.0 0.00 0.16 0.00 62 1009.8
20260906204538 93 96 2.0 9.0 0.00 0.16 0.00 61 1010.1
20260906204034 93 162 2.0 7.0 0.00 0.16 0.00 61 1010.1
20260906203529 93 129 2.0 7.0 0.00 0.16 0.00 60 1010.1
20260906203040 93 155 2.0 7.0 0.00 0.16 0.00 62 1010.1
20260906202533 93 138 2.0 7.0 0.00 0.52 0.00 61 1010.1
20260906202029 93 61 1.0 6.0 0.00 0.52 0.00 61 1010.1
20260906201535 93 47 2.0 6.0 0.00 0.52 0.00 61 1010.5
20260906201030 92 146 2.0 6.0 0.00 0.52 0.00 60 1010.5
20260906200536 92 105 2.0 6.0 0.00 0.52 0.00 64 1010.5
20260906200052 92 62 2.0 7.0 0.00 0.52 0.00 64 1010.5
20260906195553 91 70 3.0 7.0 0.00 0.52 0.00 66 1010.5
20260906195028 91 50 2.0 5.0 0.00 0.52 0.00 65 1010.5
20260906194533 92 51 3.0 6.0 0.00 0.52 0.00 62 1010.6
20260906194050 92 63 1.0 6.0 0.00 0.52 0.00 63 1010.6
20260906193524 93 69 2.0 6.0 0.00 0.52 0.00 62 1010.6
20260906193032 93 92 1.0 9.0 0.00 0.52 0.00 63 1010.8
20260906192528 93 38 4.0 10.0 0.00 0.52 0.00 63 1010.8
20260906192024 94 87 2.0 10.0 0.00 0.52 0.00 61 1010.8
20260906191537 94 53 2.0 6.0 0.00 0.52 0.00 61 1011.2
20260906191031 94 108 2.0 10.0 0.00 0.52 0.00 64 1011.2
20260906190527 94 110 3.0 10.0 0.00 0.52 0.00 61 1011.2
20260906190023 94 62 1.0 7.0 0.00 0.52 0.00 60 1011.3
20260906185538 94 71 1.0 7.0 0.00 0.52 0.00 59 1011.3
20260906185034 93 129 2.0 7.0 0.00 0.52 0.00 61 1011.3
20260906184550 93 129 1.0 4.0 0.00 0.52 0.00 64 1011.6
20260906184037 92 30 1.0 4.0 0.00 0.52 0.00 64 1011.6
20260906183534 92 56 1.0 4.0 0.00 0.52 0.00 62 1011.6
20260906183030 92 49 2.0 3.0 0.00 0.52 0.00 62 1011.7
20260906182538 93 26 1.0 3.0 0.00 0.52 0.00 64 1011.7
20260906182034 93 84 0.0 2.0 0.00 0.52 0.00 61 1011.7
20260906181529 93 86 1.0 3.0 0.00 0.52 0.00 63 1011.7
20260906181036 93 86 1.0 3.0 0.00 0.52 0.00 59 1011.7
20260906180531 94 94 1.0 3.0 0.00 0.52 0.00 59 1011.7
20260906180038 95 7 1.0 4.0 0.00 0.52 0.00 58 1011.7
20260906175530 95 242 1.0 4.0 0.00 0.52 0.00 57 1011.7
20260906175045 94 54 1.0 3.0 0.00 0.52 0.00 55 1011.7
20260906174532 94 276 0.0 6.0 0.00 0.52 0.00 52 1011.7
20260906174028 94 278 4.0 6.0 0.00 0.52 0.00 52 1011.7
20260906173524 93 305 0.0 7.0 0.00 0.52 0.00 54 1011.7
20260906173033 93 233 4.0 7.0 0.00 0.52 0.00 53 1011.7
20260906172549 93 328 2.0 7.0 0.00 0.52 0.00 53 1011.7
20260906172035 93 250 2.0 5.0 0.00 0.52 0.00 53 1011.7
20260906171530 92 285 1.0 5.0 0.00 0.52 0.00 55 1012.0
20260906171046 92 299 2.0 5.0 0.00 0.52 0.00 56 1012.0
20260906170535 91 307 1.0 6.0 0.00 0.52 0.00 60 1012.0
20260906170026 91 246 2.0 9.0 0.00 0.52 0.00 58 1012.2
20260906165535 90 359 1.0 9.0 0.00 0.52 0.00 62 1012.2
20260906165031 90 333 3.0 6.0 0.00 0.52 0.00 62 1012.2
20260906164526 90 217 2.0 6.0 0.00 0.52 0.00 62 1012.2
20260906164023 90 307 4.0 6.0 0.00 0.52 0.00 62 1012.2
20260906163537 89 226 2.0 6.0 0.00 0.52 0.00 62 1012.2
20260906163035 89 293 4.0 6.0 0.00 0.52 0.00 63 1012.4
20260906162529 88 319 4.0 10.0 0.00 0.52 0.00 65 1012.4
20260906162038 88 280 4.0 10.0 0.00 0.52 0.00 66 1012.4
20260906161549 88 298 2.0 6.0 0.00 0.52 0.00 68 1012.7
20260906161023 87 229 3.0 6.0 0.00 0.52 0.00 71 1012.7
20260906160556 87 248 2.0 6.0 0.00 0.52 0.00 70 1012.7
20260906160028 86 256 3.0 7.0 0.00 0.52 0.00 70 1012.8
20260906155534 86 274 4.0 7.0 0.00 0.52 0.00 70 1012.8
20260906155027 86 238 1.0 8.0 0.00 0.52 0.00 73 1012.8
20260906154533 86 295 4.0 8.0 0.00 0.52 0.00 73 1013.0
20260906154030 86 274 4.0 6.0 0.00 0.52 0.00 74 1013.0
20260906153524 85 319 1.0 4.0 0.00 0.52 0.00 79 1013.0
20260906153055 85 281 1.0 6.0 0.00 0.52 0.00 80 1013.2
20260906152551 85 340 3.0 6.0 0.00 0.52 0.00 80 1013.2
20260906152025 84 306 1.0 7.0 0.00 0.52 0.00 80 1013.2
20260906151540 84 247 3.0 7.0 0.00 0.52 0.00 80 1013.2
20260906151033 84 266 4.0 6.0 0.00 0.52 0.00 82 1013.2
20260906150529 83 310 2.0 6.0 0.00 0.52 0.00 83 1013.2
20260906150023 83 325 1.0 6.0 0.00 0.52 0.00 84 1013.2
20260906145540 83 239 1.0 4.0 0.00 0.52 0.00 86 1013.2
20260906145035 82 349 2.0 6.0 0.00 0.52 0.00 88 1013.2
20260906144531 82 277 3.0 6.0 0.00 0.52 0.00 90 1013.2
20260906144038 82 348 2.0 6.0 0.00 0.52 0.00 92 1013.2
20260906143533 81 314 3.0 6.0 0.00 0.52 0.00 93 1013.2
20260906143031 81 338 1.0 6.0 0.00 0.52 0.00 96 1013.0
20260906142528 81 274 3.0 6.0 0.00 0.52 0.00 97 1013.0
20260906142024 81 245 1.0 6.0 0.00 0.52 0.00 98 1013.0
20260906141537 81 330 3.0 6.0 0.00 0.52 0.00 100 1012.9
20260906141032 80 331 2.0 5.0 0.00 0.52 0.00 100 1012.9
20260906140528 80 269 2.0 4.0 0.00 0.52 0.00 100 1012.9
20260906140032 80 223 2.0 5.0 0.00 0.52 0.00 100 1013.1
20260906135528 80 235 3.0 5.0 0.00 0.52 0.00 100 1013.1
20260906135023 79 236 3.0 5.0 0.00 0.52 0.00 100 1013.1
20260906134539 79 223 3.0 5.0 0.00 0.52 0.00 100 1013.1
20260906134054 79 290 1.0 4.0 0.00 0.52 0.00 100 1013.1
20260906133525 79 236 1.0 6.0 0.00 0.52 0.00 100 1013.1
20260906133031 79 234 3.0 6.0 0.00 0.52 0.00 100 1013.2
20260906132548 78 274 2.0 6.0 0.00 0.52 0.00 100 1013.2
20260906132036 78 241 2.0 5.0 0.00 0.52 0.00 100 1013.2
20260906131532 78 251 3.0 6.0 0.00 0.52 0.00 100 1013.2
20260906131029 78 252 3.0 6.0 0.00 0.52 0.00 100 1013.2
20260906130559 77 252 3.0 6.0 0.00 0.52 0.00 100 1013.2
20260906130035 77 226 3.0 5.0 0.00 0.52 0.00 100 1013.2
20260906125531 77 244 2.0 5.0 0.00 0.52 0.00 100 1013.2
20260906125028 77 239 3.0 5.0 0.00 0.52 0.00 100 1013.2
20260906124523 76 217 1.0 4.0 0.00 0.52 0.00 100 1013.1
20260906124039 76 271 2.0 4.0 0.00 0.52 0.00 100 1013.1
20260906123534 76 216 1.0 4.0 0.00 0.52 0.00 100 1013.1
20260906123051 76 250 1.0 4.0 0.00 0.52 0.00 100 1012.8
20260906122528 76 247 2.0 4.0 0.00 0.52 0.00 100 1012.8
20260906122037 75 229 2.0 3.0 0.00 0.52 0.00 100 1012.8
20260906121533 75 240 1.0 3.0 0.00 0.52 0.00 100 1012.7
20260906121028 75 266 1.0 3.0 0.00 0.52 0.00 100 1012.7
20260906120523 75 265 0.0 2.0 0.00 0.52 0.00 100 1012.7
20260906120033 75 265 0.0 2.0 0.00 0.52 0.00 100 1012.7
20260906115525 75 265 2.0 3.0 0.00 0.52 0.00 100 1012.7
20260906115033 75 248 2.0 3.0 0.00 0.52 0.00 100 1012.7
20260906114530 75 199 1.0 3.0 0.00 0.52 0.00 100 1012.5
20260906114027 75 242 1.0 3.0 0.00 0.52 0.00 100 1012.5
20260906113524 75 258 1.0 3.0 0.00 0.52 0.00 100 1012.5
20260906113032 75 241 1.0 3.0 0.00 0.52 0.00 100 1012.3
20260906112529 75 232 0.0 3.0 0.00 0.52 0.00 100 1012.3
20260906112044 75 232 1.0 3.0 0.00 0.52 0.00 100 1012.3
20260906111553 75 233 1.0 4.0 0.00 0.52 0.00 100 1012.2
20260906111025 75 221 1.0 4.0 0.00 0.52 0.00 100 1012.2
20260906110540 75 233 1.0 5.0 0.00 0.52 0.00 100 1012.2
20260906110033 74 219 2.0 5.0 0.00 0.52 0.00 100 1011.7
20260906105530 74 261 2.0 5.0 0.00 0.52 0.00 100 1011.7
20260906105027 74 253 1.0 4.0 0.00 0.52 0.00 100 1011.7
20260906104524 74 204 1.0 4.0 0.00 0.52 0.00 100 1011.6
20260906104040 74 213 2.0 3.0 0.00 0.52 0.00 100 1011.6
20260906103534 74 224 2.0 4.0 0.00 0.52 0.00 100 1011.6
20260906103032 75 198 1.0 4.0 0.00 0.52 0.00 100 1011.4
20260906102527 75 221 0.0 3.0 0.00 0.52 0.00 100 1011.4
20260906102036 75 221 2.0 3.0 0.00 0.52 0.00 100 1011.4
20260906101532 75 187 0.0 3.0 0.00 0.52 0.00 100 1011.2
20260906101029 75 231 1.0 2.0 0.00 0.52 0.00 100 1011.2
20260906100524 75 285 1.0 2.0 0.00 0.52 0.00 100 1011.2
20260906100100 74 285 0.0 1.0 0.00 0.52 0.00 100 1011.0
20260906095534 74 285 0.0 0.0 0.00 0.52 0.00 100 1011.0
20260906095031 74 285 0.0 3.0 0.00 0.52 0.00 100 1011.0
20260906094527 74 279 0.0 3.0 0.00 0.52 0.00 100 1010.8
20260906094031 74 299 0.0 2.0 0.00 0.52 0.00 100 1010.8
20260906093549 74 299 1.0 2.0 0.00 0.52 0.00 100 1010.8
20260906093044 75 296 0.0 3.0 0.00 0.52 0.00 100 1010.7
20260906092553 74 296 1.0 5.0 0.00 0.52 0.00 100 1010.7
20260906092028 74 298 3.0 5.0 0.00 0.52 0.00 100 1010.7
20260906091535 74 295 1.0 4.0 0.00 0.52 0.00 100 1010.6
20260906091031 74 293 1.0 5.0 0.00 0.52 0.00 100 1010.6
20260906090527 74 279 1.0 5.0 0.00 0.52 0.00 100 1010.6
20260906090034 74 316 0.0 3.0 0.00 0.52 0.00 100 1010.6
20260906085532 74 309 1.0 4.0 0.00 0.52 0.00 100 1010.6
20260906085028 74 295 2.0 4.0 0.00 0.52 0.00 100 1010.6
20260906084537 74 282 0.0 5.0 0.00 0.52 0.00 100 1010.7
20260906084034 74 270 1.0 5.0 0.00 0.52 0.00 100 1010.7
20260906083527 74 272 1.0 4.0 0.00 0.52 0.00 100 1010.7
20260906083036 74 283 0.0 2.0 0.00 0.52 0.00 100 1010.8
20260906082532 74 261 0.0 4.0 0.00 0.52 0.00 100 1010.8
20260906082028 74 257 0.0 4.0 0.00 0.52 0.00 100 1010.8
20260906081537 74 274 1.0 3.0 0.00 0.52 0.00 100 1010.7
20260906081032 74 295 1.0 2.0 0.00 0.52 0.00 100 1010.7
20260906080548 74 248 0.0 3.0 0.00 0.52 0.00 100 1010.7
20260906080056 74 245 1.0 3.0 0.00 0.52 0.00 100 1010.8
20260906075527 74 252 1.0 3.0 0.00 0.52 0.00 100 1010.8
20260906075023 74 252 0.0 2.0 0.00 0.52 0.00 100 1010.8
20260906074532 74 252 0.0 3.0 0.00 0.52 0.00 100 1010.7
20260906074029 74 252 1.0 4.0 0.00 0.52 0.00 100 1010.7
20260906073523 74 225 2.0 4.0 0.00 0.52 0.00 100 1010.7
20260906073039 74 203 1.0 4.0 0.00 0.52 0.00 100 1010.9
20260906072535 74 259 1.0 4.0 0.00 0.52 0.00 100 1010.9
20260906072029 74 262 1.0 4.0 0.00 0.52 0.00 100 1010.9
20260906071525 74 252 2.0 4.0 0.00 0.52 0.00 100 1011.2
20260906071033 74 233 1.0 3.0 0.00 0.52 0.00 100 1011.2
20260906070551 74 236 1.0 4.0 0.00 0.52 0.00 100 1011.2
20260906070028 74 255 0.0 4.0 0.00 0.52 0.00 100 1011.5
20260906065532 74 272 1.0 3.0 0.00 0.52 0.00 100 1011.5
20260906065028 74 302 0.0 4.0 0.00 0.52 0.00 100 1011.5
20260906064528 74 287 0.0 4.0 0.00 0.52 0.00 100 1011.7
20260906064035 74 249 2.0 4.0 0.00 0.52 0.00 100 1011.7
20260906063529 74 256 1.0 4.0 0.00 0.52 0.00 100 1011.7
20260906063038 74 250 1.0 3.0 0.00 0.52 0.00 100 1012.0
20260906062534 74 236 2.0 3.0 0.00 0.52 0.00 100 1012.0
20260906062031 74 245 2.0 5.0 0.00 0.52 0.00 100 1012.0
20260906061528 74 210 2.0 5.0 0.00 0.52 0.00 100 1012.2
20260906061037 74 218 2.0 3.0 0.00 0.52 0.00 100 1012.2
20260906060532 74 205 2.0 3.0 0.00 0.52 0.00 100 1012.2
20260906060032 74 209 1.0 3.0 0.00 0.52 0.00 100 1012.2
20260906055528 74 225 2.0 3.0 0.00 0.52 0.00 100 1012.2
20260906055036 74 234 2.0 3.0 0.00 0.52 0.00 100 1012.2
20260906054532 74 236 1.0 2.0 0.00 0.52 0.00 100 1012.6
20260906054028 74 236 1.0 3.0 0.00 0.52 0.00 100 1012.6
20260906053538 74 236 1.0 3.0 0.00 0.52 0.00 100 1012.6
20260906053034 74 231 1.0 3.0 0.00 0.52 0.00 100 1012.7
20260906052530 74 227 1.0 4.0 0.00 0.52 0.00 100 1012.7
20260906052026 74 192 3.0 4.0 0.00 0.52 0.00 100 1012.7
20260906051531 74 216 1.0 3.0 0.00 0.52 0.00 100 1012.7
20260906051027 75 234 1.0 7.0 0.00 0.52 0.00 100 1012.7
20260906050523 75 231 1.0 7.0 0.00 0.52 0.00 100 1012.7
20260906050032 75 209 2.0 5.0 0.00 0.52 0.00 100 1012.7
20260906045529 75 192 3.0 5.0 0.00 0.52 0.00 100 1012.7
20260906045025 75 252 2.0 7.0 0.00 0.52 0.00 100 1012.7
20260906044530 75 228 2.0 7.0 0.00 0.52 0.00 100 1012.7
20260906044047 75 234 2.0 4.0 0.00 0.52 0.00 100 1012.7
20260906043550 75 235 0.0 3.0 0.00 0.52 0.00 100 1012.7
20260906043059 75 276 2.0 3.0 0.00 0.52 0.00 100 1012.7
20260906042554 75 205 1.0 4.0 0.00 0.52 0.00 100 1012.7
20260906042050 75 198 2.0 4.0 0.01 0.52 0.00 100 1012.7
20260906041537 75 245 2.0 3.0 0.01 0.52 0.00 100 1012.8
20260906041032 75 234 1.0 3.0 0.01 0.52 0.00 100 1012.8
20260906040528 75 236 2.0 3.0 0.01 0.52 0.00 100 1012.8
20260906040036 75 247 1.0 3.0 0.01 0.52 0.52 100 1012.7
20260906035553 75 236 1.0 4.0 0.01 0.52 0.52 100 1012.7
20260906035028 75 240 1.0 4.0 0.01 0.52 0.52 100 1012.7
20260906034533 75 232 2.0 6.0 0.01 0.52 0.52 100 1012.5
20260906034030 75 226 2.0 6.0 0.01 0.52 0.52 100 1012.5
20260906033525 75 217 2.0 6.0 0.01 0.52 0.52 100 1012.5
20260906033101 75 226 0.0 3.0 0.01 0.52 0.52 100 1012.4
20260906032533 75 240 1.0 3.0 0.01 0.52 0.52 100 1012.4
20260906032026 75 229 1.0 3.0 0.00 0.51 0.51 100 1012.4
20260906031523 75 226 0.0 4.0 0.00 0.51 0.51 100 1012.4
20260906031031 75 243 0.0 4.0 0.01 0.51 0.51 100 1012.4
20260906030531 75 231 2.0 4.0 0.01 0.51 0.51 100 1012.4
20260906030026 75 234 1.0 4.0 0.01 0.51 0.51 100 1012.6
20260906025536 75 233 0.0 2.0 0.02 0.51 0.51 100 1012.6
20260906025029 75 233 0.0 3.0 0.02 0.51 0.51 100 1012.6
20260906024526 75 233 1.0 3.0 0.02 0.51 0.51 100 1012.9
20260906024036 75 229 0.0 0.0 0.03 0.51 0.51 100 1012.9
20260906023532 75 228 0.0 0.0 0.03 0.51 0.51 100 1012.9
20260906023027 75 228 0.0 3.0 0.03 0.51 0.51 100 1013.0
20260906022536 75 243 0.0 3.0 0.03 0.51 0.51 100 1013.0
20260906022033 75 231 1.0 3.0 0.03 0.51 0.51 100 1013.0
20260906021528 75 243 1.0 2.0 0.04 0.51 0.51 100 1012.9
20260906021038 75 235 1.0 2.0 0.03 0.50 0.50 100 1012.9
20260906020534 75 234 0.0 2.0 0.03 0.50 0.50 100 1012.9
20260906020031 75 234 1.0 3.0 0.03 0.50 0.50 100 1013.0
20260906015538 75 234 2.0 3.0 0.02 0.49 0.49 100 1013.0
20260906015033 75 204 1.0 4.0 0.03 0.49 0.49 100 1013.0
20260906014529 75 189 0.0 4.0 0.03 0.49 0.49 100 1012.8
20260906014027 75 238 1.0 4.0 0.02 0.48 0.48 100 1012.8
20260906013536 75 198 1.0 4.0 0.02 0.48 0.48 100 1012.8
20260906013036 75 162 1.0 6.0 0.03 0.48 0.48 100 1012.8
20260906012530 75 189 1.0 6.0 0.03 0.48 0.48 100 1012.8
20260906012025 75 165 1.0 6.0 0.03 0.48 0.48 100 1012.8
20260906011534 75 147 3.0 6.0 0.02 0.47 0.47 100 1013.1
20260906011030 75 250 2.0 6.0 0.02 0.47 0.47 100 1013.1
20260906010525 75 110 1.0 4.0 0.03 0.47 0.47 100 1013.1
20260906010021 75 123 0.0 2.0 0.03 0.47 0.47 100 1013.3
20260906005534 75 123 0.0 2.0 0.03 0.47 0.47 100 1013.3
20260906005050 75 169 0.0 5.0 0.02 0.46 0.46 100 1013.3
20260906004526 75 169 1.0 5.0 0.02 0.46 0.46 100 1013.2
20260906004023 75 173 0.0 3.0 0.02 0.46 0.46 100 1013.2
20260906003533 75 151 0.0 2.0 0.02 0.46 0.46 100 1013.2
20260906003029 75 150 0.0 1.0 0.01 0.45 0.45 100 1012.7
20260906002528 75 150 0.0 3.0 0.01 0.45 0.45 100 1012.7
20260906002024 75 150 1.0 3.0 0.01 0.45 0.45 99 1012.7
20260906001533 75 200 0.0 2.0 0.01 0.45 0.45 98 1012.8
20260906001029 75 304 0.0 1.0 0.01 0.45 0.45 97 1012.8
20260906000523 75 304 0.0 1.0 0.00 0.44 0.44 97 1012.8
20260906000030 75 304 0.0 3.0 0.00 0.44 0.44 97 1012.7
20260905235559 75 304 0.0 3.0 0.00 0.44 0.44 97 1012.7
20260905235035 75 304 1.0 2.0 0.00 0.44 0.44 97 1012.7
20260905234531 75 304 1.0 4.0 0.00 0.44 0.44 97 1013.2
20260905234027 75 304 0.0 5.0 0.00 0.44 0.44 97 1013.2
20260905233537 76 297 3.0 5.0 0.00 0.44 0.44 97 1013.2
20260905233033 76 354 2.0 7.0 0.00 0.44 0.44 98 1013.7
20260905232530 76 347 3.0 7.0 0.00 0.44 0.44 99 1013.7
20260905232046 76 21 2.0 14.0 0.00 0.44 0.44 100 1013.7
20260905231538 76 344 5.0 14.0 0.00 0.44 0.44 100 1012.8
20260905231033 77 1 5.0 12.0 0.00 0.44 0.44 100 1012.8
20260905230529 78 50 6.0 10.0 0.00 0.44 0.44 100 1012.8
20260905230058 78 142 0.0 2.0 0.00 0.44 0.44 100 1012.4
20260905225532 79 72 0.0 3.0 0.00 0.44 0.44 100 1012.4
20260905225026 79 54 1.0 3.0 0.00 0.44 0.44 100 1012.4
20260905224530 79 96 1.0 3.0 0.00 0.44 0.44 100 1012.6
20260905224026 79 61 1.0 4.0 0.00 0.44 0.44 100 1012.6